This demonstration page uses our WeatherBlox Daily Observations layout. Learn more.

Left ArrowRight Arrow

Hourly Observations for December 9, 2022

Temp ( °F °C ) Dew Point ( °F °C ) Humidity (%) Winds ( mph kmh ) Pressure ( in mb ) Visibility ( mi km ) Precip ( " mm )
12:56 am 00:56 Clear 27 -2.8 26 -3.3 96 96 WNW 12 19 30.16 1021 10 16 0.00 0.00
1:24 am 01:24 Mostly Cloudy 27 -3 27 -3 100 100 WNW 15 24 30.21 1023 10 16 0.00 0.00
1:56 am 01:56 Cloudy 28 -2.2 26 -3.3 92 92 NW 14 22 30.16 1021 10 16 0.00 0.00
2:14 am 02:14 Mostly Cloudy 28 -2 27 -3 93 93 NW 13 20 30.22 1023 10 16 0.00 0.00
2:30 am 02:30 Partly Cloudy 27 -3 25 -4 93 93 WNW 9 15 30.24 1024 10 16 0.00 0.00
2:54 am 02:54 Mostly Cloudy 26 -3.3 25 -3.9 96 96 WNW 12 19 30.19 1022 10 16 0.00 0.00
3:56 am 03:56 Cloudy 26 -3.3 25 -3.9 96 96 WNW 10 17 30.19 1022 10 16 0.00 0.00
4:56 am 04:56 Cloudy 26 -3.3 24 -4.4 92 92 W 9 15 30.21 1023 10 16 0.00 0.00
5:28 am 05:28 Partly Cloudy 27 -3 25 -4 93 93 W 6 9 30.26 1025 10 16 0.00 0.00
5:56 am 05:56 Mostly Cloudy 25 -3.9 23 -5 92 92 WNW 7 11 30.22 1024 10 16 0.00 0.00
6:52 am 06:52 Partly Cloudy 25 -4 23 -5 93 93 NW 10 17 30.28 1025 10 16 0.00 0.00
6:56 am 06:56 Mostly Clear 25 -3.9 23 -5 92 92 NW 9 15 30.22 1023 10 16 0.00 0.00
7:56 am 07:56 Sunny 22 -5.6 19 -7.2 88 88 NW 9 15 30.24 1024 10 16 0.00 0.00
8:56 am 08:56 Sunny 24 -4.4 22 -5.6 91 91 NW 6 9 30.23 1024 10 16 0.00 0.00
9:56 am 09:56 Sunny 30 -1.1 27 -2.8 88 88 NW 7 11 30.23 1024 10 16 0.00 0.00
10:56 am 10:56 Sunny 33 0.6 30 -1.1 88 88 NW 5 7 30.20 1023 10 16 0.00 0.00
11:56 am 11:56 Sunny 39 3.9 35 1.7 86 86 Calm 30.18 1022 10 16 0.00 0.00
12:56 pm 12:56 Sunny 37 2.8 32 0 82 82 S 7 11 30.18 1022 10 16 0.00 0.00
1:56 pm 13:56 Sunny 38 3.3 31 -0.6 76 76 SSE 6 9 30.14 1021 10 16 0.00 0.00
2:56 pm 14:56 Sunny 41 5 30 -1.1 65 65 S 9 15 30.11 1020 10 16 0.00 0.00
3:56 pm 15:56 Sunny 41 5 30 -1.1 65 65 S 8 13 30.11 1020 10 16 0.00 0.00
4:56 pm 16:56 Sunny 36 2.2 29 -1.7 75 75 SSE 7 11 30.11 1020 10 16 0.00 0.00
5:56 pm 17:56 Clear 31 -0.6 28 -2.2 89 89 SE 8 13 30.09 1019 10 16 0.00 0.00
6:56 pm 18:56 Clear 29 -1.7 26 -3.3 89 89 ESE 6 9 30.10 1019 10 16 0.00 0.00
7:56 pm 19:56 Clear 26 -3.3 24 -4.4 92 92 Calm 30.14 1021 10 16 0.00 0.00
8:56 pm 20:56 Clear with Mist and Fog 23 -5 21 -6.1 92 92 E 6 9 30.14 1021 6 10 0.00 0.00
9:40 pm 21:40 Mostly Cloudy with Light Snow 23 -5 21 -6 93 93 ESE 5 7 30.19 1023 1 1 0.01 0.13
9:56 pm 21:56 Partly Cloudy with Mist and Fog 23 -5 22 -5.6 96 96 Calm 30.13 1020 1 2 0.01 0.13
10:03 pm 22:03 Mostly Cloudy with Mist and Fog 23 -5 21 -6 93 93 Calm 30.21 1023 3 4 0.00 0.00
10:14 pm 22:14 Mostly Cloudy with Mist and Fog 23 -5 21 -6 93 93 Calm 30.19 1023 2 2 0.00 0.00
10:23 pm 22:23 Mostly Cloudy with Mist and Fog 23 -5 21 -6 93 93 ESE 5 7 30.19 1023 3 5 0.00 0.00
10:56 pm 22:56 Clear with Mist and Fog 22 -5.6 20 -6.7 92 92 SE 5 7 30.12 1020 3 5 0.00 0.00
11:00 pm 23:00 Mostly Clear with Mist and Fog 21 -6 19 -7 93 93 SE 5 7 30.20 1023 3 4 0.00 0.00
11:09 pm 23:09 Partly Cloudy with Isolated Snow Showers 21 -6 19 -7 93 93 ESE 5 7 30.20 1023 1 2 0.01 0.13
11:22 pm 23:22 Mostly Clear with Mist and Fog 21 -6 19 -7 93 93 SE 3 6 30.20 1023 2 3 0.01 0.13
11:38 pm 23:38 Mostly Cloudy with Mist and Fog 19 -7 18 -8 93 93 SSE 5 7 30.21 1023 2 3 0.01 0.13
11:48 pm 23:48 Mostly Cloudy with Freezing Fog 19 -7 18 -8 93 93 SSE 6 9 30.21 1023 1 1 0.01 0.13

Powered by AerisWeather